Location: Degersen
(52.2871°N, 9.5716°E)
Time: 23:29:11
(UTC+00:00)

Cosmos 841 Rocket - Pass Details

Date: 20 January 2026
Orbit: 743 x 766 km, 74.0° (Epoch: 9 February)

Event Time Altitude Azimuth Distance (km) Brightness Sun altitude
Exits shadow 06:33:36 - 329° (NNW) 2,923 6.0 -7.0°
Reaches altitude 10° 06:35:19 10° 324° (NW) 2,281 5.4 -6.7°
Maximum altitude 06:40:08 41° 255° (WSW) 1,073 4.0 -6.0°
Drops below altitude 10° 06:44:55 10° 186° (S) 2,255 6.2 -5.4°
Sets 06:47:21 0° 179° (S) 3,172 7.1 -5.1°
